Location: Jarosław
(50.0191°N, 22.6835°E)
Time: 18:31:02
(UTC+02:00)

ISS - Pass Details

Date: 28 March 2019
Orbit: 408 x 410 km, 51.6° (Epoch: 20 April)

Event Time Altitude Azimuth Distance (km) Brightness Sun altitude
Rises 19:20:23 0° 268° (W) 2,338 1.3 -14.2°
Reaches altitude 10° 19:22:29 10° 272° (W) 1,477 0.2 -14.5°
Maximum altitude 19:25:46 65° 355° (N) 455 -3.5 -15.0°
Enters shadow 19:27:25 27° 71° (ENE) 836 -2.7 -15.2°
